Burgas, Bulgaria

9:26 AM EET on March 22, 2019 (GMT +0200)
Burgas

Weather History for LBBG - March, 2019

Change the Weather History Date:

Friday, March 22, 2019

  Actual Average Record
Temperature  
Mean Temperature 44 °F -  
Max Temperature 51 °F 51 °F 71 °F (2004)
Min Temperature 39 °F 34 °F 21 °F (2003)
Degree Days  
Heating Degree Days 22    
Moisture  
Dew Point 35 °F    
Average Humidity 73    
Maximum Humidity 81    
Minimum Humidity 61    
Precipitation  
Precipitation 0.00 in - - ()
Sea Level Pressure  
Sea Level Pressure 30.44 in    
Wind  
Wind Speed 3 mph ()    
Max Wind Speed 7 mph    
Max Gust Speed -    
Visibility 7.2 miles    
Events      
Averages and records for this station are not official NWS values.
T = Trace of Precipitation, MM = Missing Value Source: Averaged Metar Reports

Daily Weather History Graph

Daily Weather History Graph

Search for Another Location

Airport or City:

Astronomy

Mar. 22, 2019 Rise Set
Actual Time 6:10 AM EET 6:24 PM EET
Civil Twilight 5:42 AM EET 6:52 PM EET
Nautical Twilight 5:09 AM EET 7:25 PM EET
Astronomical Twilight 4:36 AM EET 7:58 PM EET
Moon 8:10 PM EET 7:14 AM EET
Length of Visible Light 13h 09m
Length of Day
12h 13m
Full, 97% of the Moon is Illuminated
Today
Full
Mar 28
Last Quarter
Apr 5
New
Apr 12
First Quarter
Apr 19
Full

Hourly Weather History & Observations

Time (EET) Temp. Windchill Dew Point Humidity Pressure Visibility Wind Dir Wind Speed Gust Speed Precip Events Conditions
12:30 AM 46.4 °F 45.2 °F 41.0 °F 81% 30.45 in - North 3.5 mph - N/A   Clear
1:00 AM 44.6 °F - 39.2 °F 81% 30.45 in - Variable 2.3 mph - N/A   Clear
1:30 AM 44.6 °F - 39.2 °F 81% 30.45 in - NNW 2.3 mph - N/A   Clear
2:00 AM 45 °F - 40 °F 76% 30.46 in 11 mi East 2.2 mph - -   Mostly Cloudy
2:00 AM 42.8 °F 41.1 °F 37.4 °F 81% 30.45 in - NNW 3.5 mph - N/A   Clear
2:30 AM 42.8 °F - 37.4 °F 81% 30.45 in - NNW 2.3 mph - N/A   Clear
3:00 AM 41.0 °F 39.0 °F 30.2 °F 65% 30.45 in - NNW 3.5 mph - N/A   Clear
3:30 AM 42.8 °F - 30.2 °F 61% 30.45 in 6.2 mi NNW 2.3 mph - N/A   Partly Cloudy
4:00 AM 39.2 °F 37.0 °F 28.4 °F 65% 30.42 in 6.2 mi WNW 3.5 mph - N/A   Mostly Cloudy
4:30 AM 39.2 °F - 30.2 °F 70% 30.42 in 6.2 mi WNW 2.3 mph - N/A   Mostly Cloudy
5:00 AM 43 °F - 38 °F 78% 30.45 in 11 mi Calm Calm - -   Mostly Cloudy
5:00 AM 41.0 °F 39.0 °F 33.8 °F 76% 30.42 in 6.2 mi WNW 3.5 mph - N/A   Scattered Clouds
5:30 AM 42.8 °F 40.1 °F 32.0 °F 66% 30.42 in 6.2 mi WSW 4.6 mph - N/A   Scattered Clouds
6:00 AM 39.2 °F 37.0 °F 30.2 °F 70% 30.42 in 6.2 mi SW 3.5 mph - N/A   Scattered Clouds
6:30 AM 39.2 °F 34.2 °F 32.0 °F 75% 30.42 in 6.2 mi SW 6.9 mph - N/A   Scattered Clouds
7:00 AM 39.2 °F 34.2 °F 33.8 °F 81% 30.42 in 6.2 mi SW 6.9 mph - N/A   Partly Cloudy
7:30 AM 42.8 °F 39.3 °F 35.6 °F 76% 30.45 in - SW 5.8 mph - N/A   Clear
8:00 AM 44.6 °F 40.7 °F 35.6 °F 71% 30.45 in - SW 6.9 mph - N/A   Clear
8:30 AM 48.2 °F - 37.4 °F 66% 30.45 in - SW 5.8 mph - N/A   Clear
9:00 AM 51.8 °F - 39.2 °F 62% 30.45 in - WSW 5.8 mph - N/A   Clear